Council Bluffs, IA

4:00 PM CST on December 15, 2019 (GMT -0600)
Council Bluffs Municipal

Weather History for KCBF - November, 2019

Change the Weather History Date:

Tuesday, November 19, 2019

  Actual Average Record
Temperature  
Mean Temperature 48 °F -  
Max Temperature 59 °F 46 °F 75 °F (2007)
Min Temperature 37 °F 29 °F 19 °F (1997)
Degree Days  
Heating Degree Days 17    
Moisture  
Dew Point 33 °F    
Average Humidity 66    
Maximum Humidity 100    
Minimum Humidity 27    
Precipitation  
Precipitation 0.00 in - - ()
Sea Level Pressure  
Sea Level Pressure 29.86 in    
Wind  
Wind Speed 6 mph ()    
Max Wind Speed 10 mph    
Max Gust Speed 14 mph    
Visibility 10.0 miles    
Events      
Averages and records for this station are not official NWS values.
T = Trace of Precipitation, MM = Missing Value Source: Averaged Metar Reports

Daily Weather History Graph

Daily Weather History Graph

Search for Another Location

Airport or City:

Astronomy

Nov. 19, 2019 Rise Set
Actual Time 7:15 AM CST 5:00 PM CST
Civil Twilight 6:45 AM CST 5:30 PM CST
Nautical Twilight 6:12 AM CST 6:04 PM CST
Astronomical Twilight 5:39 AM CST 6:37 PM CST
Moon 11:58 PM CST (11/19) 1:26 PM CST (11/19)
Length of Visible Light 10h 44m
Length of Day
9h 45m
Waning Gibbous, 51% of the Moon is Illuminated
Nov 19
Waning Gibbous
Nov 19
Last Quarter
Nov 26
New
Dec 4
First Quarter
Dec 11
Full

Hourly Weather History & Observations

Time (CST) Temp. Windchill Dew Point Humidity Pressure Visibility Wind Dir Wind Speed Gust Speed Precip Events Conditions
12:15 AM 44.6 °F 39.7 °F 44.6 °F 100% 29.77 in 10.0 mi NW 9.2 mph - N/A   Clear
12:35 AM 44.6 °F 39.7 °F 44.6 °F 100% 29.77 in 10.0 mi NW 9.2 mph - N/A   Clear
12:55 AM 42.8 °F 38.6 °F 42.8 °F 100% 29.78 in 10.0 mi West 6.9 mph - N/A   Clear
1:15 AM 42.8 °F 38.0 °F 42.8 °F 100% 29.78 in 10.0 mi West 8.1 mph - N/A   Clear
1:35 AM 42.8 °F 38.6 °F 42.8 °F 100% 29.78 in 10.0 mi WNW 6.9 mph - N/A   Clear
1:55 AM 42.8 °F 39.3 °F 42.8 °F 100% 29.78 in 10.0 mi WNW 5.8 mph 13.8 mph N/A   Clear
2:15 AM 42.8 °F 39.3 °F 42.8 °F 100% 29.78 in 10.0 mi WNW 5.8 mph - N/A   Clear
2:35 AM 41.0 °F 37.1 °F 41.0 °F 100% 29.79 in 10.0 mi NW 5.8 mph - N/A   Clear
2:55 AM 41.0 °F 37.1 °F 41.0 °F 100% 29.79 in 10.0 mi WNW 5.8 mph - N/A   Clear
3:15 AM 41.0 °F 38.0 °F 41.0 °F 100% 29.78 in 10.0 mi WNW 4.6 mph - N/A   Clear
3:35 AM 39.2 °F 34.2 °F 39.2 °F 100% 29.79 in 10.0 mi WNW 6.9 mph - N/A   Clear
4:15 AM 39.2 °F 35.0 °F 39.2 °F 100% 29.79 in 10.0 mi WNW 5.8 mph - N/A   Clear
4:35 AM 39.2 °F 33.6 °F 39.2 °F 100% 29.80 in 10.0 mi West 8.1 mph - N/A   Clear
4:55 AM 39.2 °F 34.2 °F 39.2 °F 100% 29.80 in 10.0 mi WNW 6.9 mph - N/A   Clear
5:15 AM 37.4 °F 31.4 °F 37.4 °F 100% 29.81 in 10.0 mi West 8.1 mph - N/A   Clear
5:55 AM 37.4 °F 30.8 °F 37.4 °F 100% 29.83 in 10.0 mi West 9.2 mph - N/A   Clear
6:15 AM 37.4 °F 31.4 °F 37.4 °F 100% 29.83 in 10.0 mi West 8.1 mph - N/A   Clear
6:35 AM 37.4 °F 31.4 °F 37.4 °F 100% 29.84 in 10.0 mi West 8.1 mph - N/A   Clear
6:55 AM 37.4 °F 32.8 °F 37.4 °F 100% 29.84 in 10.0 mi WSW 5.8 mph - N/A   Clear
7:15 AM 37.4 °F 32.1 °F 37.4 °F 100% 29.85 in 10.0 mi WNW 6.9 mph - N/A   Clear
7:35 AM 37.4 °F 31.4 °F 37.4 °F 100% 29.86 in 10.0 mi West 8.1 mph - N/A   Clear
7:55 AM 37.4 °F 33.8 °F 37.4 °F 100% 29.87 in 10.0 mi WSW 4.6 mph - N/A   Clear
8:15 AM 39.2 °F 35.9 °F 37.4 °F 93% 29.87 in 10.0 mi West 4.6 mph - N/A   Clear
8:35 AM 41.0 °F 36.4 °F 39.2 °F 93% 29.88 in 10.0 mi WNW 6.9 mph - N/A   Clear
8:55 AM 41.0 °F 35.2 °F 39.2 °F 93% 29.89 in 10.0 mi WNW 9.2 mph - N/A   Clear
9:15 AM 42.8 °F 37.5 °F 39.2 °F 87% 29.90 in 10.0 mi WNW 9.2 mph - N/A   Clear
9:35 AM 44.6 °F 40.7 °F 35.6 °F 71% 29.89 in 10.0 mi WNW 6.9 mph - N/A   Clear
9:55 AM 46.4 °F 42.9 °F 35.6 °F 66% 29.89 in 10.0 mi NW 6.9 mph - N/A   Clear
10:15 AM 48.2 °F - 35.6 °F 62% 29.90 in 10.0 mi NW 10.4 mph - N/A   Clear
10:35 AM 48.2 °F - 33.8 °F 58% 29.90 in 10.0 mi NNW 6.9 mph - N/A   Clear
10:55 AM 50.0 °F - 32.0 °F 50% 29.90 in 10.0 mi NNW 6.9 mph - N/A   Clear
11:15 AM 50.0 °F - 32.0 °F 50% 29.90 in 10.0 mi NW 6.9 mph - N/A   Clear
11:55 AM 53.6 °F - 28.4 °F 38% 29.89 in 10.0 mi NW 8.1 mph - N/A   Clear
12:15 PM 53.6 °F - 28.4 °F 38% 29.88 in 10.0 mi Calm Calm - N/A   Clear
12:35 PM 55.4 °F - 26.6 °F 33% 29.87 in 10.0 mi Calm Calm - N/A   Clear
12:55 PM 57.2 °F - 26.6 °F 31% 29.87 in 10.0 mi West 6.9 mph - N/A   Clear
1:15 PM 57.2 °F - 23.0 °F 27% 29.87 in 10.0 mi Calm Calm - N/A   Clear
1:35 PM 57.2 °F - 24.8 °F 29% 29.87 in 10.0 mi WSW 5.8 mph - N/A   Clear
1:55 PM 57.2 °F - 26.6 °F 31% 29.86 in 10.0 mi West 5.8 mph - N/A   Clear
2:15 PM 57.2 °F - 26.6 °F 31% 29.86 in 10.0 mi Calm Calm - N/A   Clear
2:35 PM 59.0 °F - 28.4 °F 31% 29.86 in 7.0 mi Calm Calm - N/A   Clear
2:55 PM 57.2 °F - 28.4 °F 33% 29.86 in 10.0 mi SSE 3.5 mph - N/A   Clear
3:15 PM 59.0 °F - 28.4 °F 31% 29.87 in 10.0 mi Calm Calm - N/A   Clear
3:35 PM 55.4 °F - 28.4 °F 36% 29.87 in 10.0 mi Calm Calm - N/A   Clear
3:55 PM 57.2 °F - 28.4 °F 33% 29.87 in 10.0 mi Calm Calm - N/A   Clear
4:15 PM 55.4 °F - 28.4 °F 36% 29.87 in 10.0 mi Calm Calm - N/A   Clear
4:35 PM 55.4 °F - 28.4 °F 36% 29.87 in 10.0 mi ESE 3.5 mph - N/A   Clear
4:55 PM 51.8 °F - 28.4 °F 41% 29.87 in 10.0 mi East 5.8 mph - N/A   Clear
5:15 PM 51.8 °F - 26.6 °F 38% 29.87 in 10.0 mi East 6.9 mph - N/A   Scattered Clouds
5:35 PM 50.0 °F - 26.6 °F 40% 29.87 in 10.0 mi East 6.9 mph - N/A   Partly Cloudy
5:55 PM 50.0 °F - 28.4 °F 43% 29.87 in 10.0 mi East 6.9 mph - N/A   Clear
6:15 PM 48.2 °F - 28.4 °F 46% 29.88 in 10.0 mi East 4.6 mph - N/A   Clear
6:35 PM 46.4 °F 43.5 °F 28.4 °F 50% 29.88 in 10.0 mi ESE 5.8 mph - N/A   Partly Cloudy
6:55 PM 48.2 °F - 28.4 °F 46% 29.88 in 10.0 mi ESE 5.8 mph - N/A   Mostly Cloudy
7:15 PM 46.4 °F 44.3 °F 28.4 °F 50% 29.88 in 10.0 mi ESE 4.6 mph - N/A   Mostly Cloudy
7:35 PM 46.4 °F 43.5 °F 28.4 °F 50% 29.89 in 10.0 mi SE 5.8 mph - N/A   Clear
7:55 PM 44.6 °F 40.7 °F 28.4 °F 53% 29.89 in 10.0 mi SE 6.9 mph - N/A   Clear
8:15 PM 44.6 °F 40.7 °F 28.4 °F 53% 29.88 in 10.0 mi ESE 6.9 mph - N/A   Clear
8:55 PM 44.6 °F 40.7 °F 28.4 °F 53% 29.89 in 10.0 mi ESE 6.9 mph - N/A   Clear
9:15 PM 44.6 °F 40.2 °F 28.4 °F 53% 29.89 in 10.0 mi ESE 8.1 mph - N/A   Clear
9:35 PM 44.6 °F 41.4 °F 28.4 °F 53% 29.90 in 10.0 mi ESE 5.8 mph - N/A   Clear
9:55 PM 44.6 °F 41.4 °F 28.4 °F 53% 29.91 in 10.0 mi ESE 5.8 mph - N/A   Clear
10:15 PM 44.6 °F 41.4 °F 28.4 °F 53% 29.91 in 10.0 mi ESE 5.8 mph - N/A   Partly Cloudy
10:35 PM 44.6 °F 40.7 °F 28.4 °F 53% 29.91 in 10.0 mi ESE 6.9 mph - N/A   Partly Cloudy
10:55 PM 42.8 °F 39.3 °F 28.4 °F 57% 29.91 in 10.0 mi ESE 5.8 mph - N/A   Clear
11:15 PM 42.8 °F 38.6 °F 28.4 °F 57% 29.91 in 10.0 mi ESE 6.9 mph - N/A   Clear
11:35 PM 42.8 °F 39.3 °F 30.2 °F 61% 29.91 in 10.0 mi ESE 5.8 mph - N/A   Clear
11:55 PM 42.8 °F 38.0 °F 30.2 °F 61% 29.91 in 10.0 mi ESE 8.1 mph - N/A   Clear